cover

 

Get it on iTunes StoreListen on Apple Music

Flower Power

#Trackname / Key / BPM / Publish dateArtists, Remixers / Label
1 125 bpm, 4B / Ab major, 2019-03-18, Techno,  0  24
2 126 bpm, 8A / A minor, 2019-03-18, Tech House,  0  24
3 126 bpm, 7A / D minor, 2019-03-18, Techno,  0  24
4 130 bpm, 4B / Ab major, 2019-03-18, Techno,  0  24
5 124 bpm, 8A / A minor, 2019-03-18, Tech House,  0  24
6 125 bpm, 7A / D minor, 2019-03-18, Tech House,  0  24
7 123 bpm, 9A / E minor, 2019-03-18, Tech House,  0  24
8 127 bpm, 10A / B minor, 2019-03-18, Progressive House,  0  24
9 120 bpm, 3A / Bb minor, 2019-03-18, Techno,  0  24
10 126 bpm, 5A / C minor, 2019-03-18, Progressive House,  0  24
11 123 bpm, 6A / G minor, 2019-03-18, Progressive House,  0  24
12 126 bpm, 2B / F# major, 2019-03-18, Tech House,  0  24
13 126 bpm, 8B / C major, 2019-03-18, Minimal,  0  24
14 124 bpm, 10A / B minor, 2019-03-18, Tech House,  0  24
15 125 bpm, 7A / D minor, 2019-03-18, Minimal,  0  24
16 124 bpm, 7A / D minor, 2019-03-18, Techno,  0  24
17 121 bpm, 12B / E major, 2019-03-18, Techno,  0  24
18 126 bpm, 6B / Bb major, 2019-03-18, Melodic House & Techno,  0  24
19 124 bpm, 10A / B minor, 2019-03-18, Tech House,  0  24
20 130 bpm, 9A / E minor, 2019-03-18, Progressive House,  0  24
21 124 bpm, 7A / D minor, 2019-03-18, Tech House,  0  24
22 124 bpm, 7B / F major, 2019-03-18, Minimal,  0  24
23 124 bpm, 8A / A minor, 2019-03-18, Tech House,  0  24
24 124 bpm, 10B / D major, 2019-03-18, Progressive House,  0  24
25 126 bpm, 8A / A minor, 2019-03-11, Techno,  0  24
26 125 bpm, 6A / G minor, 2019-03-11, Techno,  0  24
27 123 bpm, 7B / F major, 2019-03-11, Progressive House,  0  24
28 128 bpm, 10A / B minor, 2019-03-11, Techno,  0  24
29 124 bpm, 5B / Eb major, 2019-03-11, Tech House,  1  24
30 124 bpm, 10B / D major, 2019-03-11, Progressive House,  1  24
31 125 bpm, 8A / A minor, 2019-03-11, Techno,  0  24
32 121 bpm, 5A / C minor, 2019-03-11, Minimal,  0  24
33 125 bpm, 12B / E major, 2019-03-11, Tech House,  0  24
34 124 bpm, 9A / E minor, 2019-03-11, Progressive House,  0  24
35 127 bpm, 5A / C minor, 2019-03-11, Progressive House,  0  24
36 125 bpm, 7B / F major, 2019-03-11, Progressive House,  0  24
37 125 bpm, 7A / D minor, 2019-03-11, Progressive House,  0  24
38 130 bpm, 9A / E minor, 2019-03-11, Breaks,  0  24
39 129 bpm, 10A / B minor, 2019-03-11, Tech House,  0  24
40 123 bpm, 8A / A minor, 2019-03-11, Progressive House,  0  24
41 120 bpm, 1A / Ab minor, 2019-03-11, Progressive House,  0  24
42 122 bpm, 5A / C minor, 2019-03-11, Progressive House,  0  24
43 125 bpm, 10A / B minor, 2019-03-11, Techno,  0  24
44 120 bpm, 4A / F minor, 2019-03-11, Progressive House,  0  24
45 120 bpm, 5A / C minor, 2019-03-11, Melodic House & Techno,  0  24
46 124 bpm, 9A / E minor, 2019-03-11, Progressive House,  0  24
47 125 bpm, 7A / D minor, 2019-03-11, Progressive House,  0  24
48 122 bpm, 12B / E major, 2019-03-11, Techno,  0  24
49 125 bpm, 8A / A minor, 2019-03-04, Tech House,  0  25
50 120 bpm, 7A / D minor, 2019-03-04, Techno,  0  25
51 125 bpm, 8A / A minor, 2019-03-04, House,  0  25
52 125 bpm, 10A / B minor, 2019-03-04, Tech House,  0  25
53 125 bpm, 11A / F# minor, 2019-03-04, House,  0  25
54 124 bpm, 11B / A major, 2019-03-04, Tech House,  0  25
55 120 bpm, 10B / D major, 2019-03-04, Tech House,  0  25
56 124 bpm, 7A / D minor, 2019-03-04, Techno,  0  25
57 124 bpm, 10A / B minor, 2019-03-04, Tech House,  0  25
58 124 bpm, 6A / G minor, 2019-03-04, Tech House,  0  25
59 125 bpm, 6A / G minor, 2019-03-04, Tech House,  0  25
60 124 bpm, 11B / A major, 2019-03-04, Tech House,  0  25
61 124 bpm, 8A / A minor, 2019-03-04, Tech House,  0  25
62 125 bpm, 2A / Eb minor, 2019-03-04, Tech House,  0  25
63 124 bpm, 8A / A minor, 2019-03-04, Tech House,  0  25
64 125 bpm, 5A / C minor, 2019-03-04, Tech House,  0  25
65 125 bpm, 1B / B major, 2019-03-04, Tech House,  0  25
66 125 bpm, 8A / A minor, 2019-03-04, Tech House,  0  25
67 128 bpm, 3A / Bb minor, 2019-03-04, Tech House,  0  25
68 124 bpm, 10A / B minor, 2019-03-04, Tech House,  0  25
69 126 bpm, 10B / D major, 2019-03-04, Tech House,  0  25
70 124 bpm, 9A / E minor, 2019-03-04, Tech House,  0  25
71 122 bpm, 3A / Bb minor, 2019-03-04, Tech House,  0  25
72 123 bpm, 11B / A major, 2019-03-04, Tech House,  0  25
73 124 bpm, 2A / Eb minor, 2019-03-04, Tech House,  0  25
74 124 bpm, 8A / A minor, 2019-02-25, Minimal,  0  19
75 125 bpm, 8A / A minor, 2019-02-25, Minimal,  0  19
76 120 bpm, 7A / D minor, 2019-02-25, Minimal,  1  19
77 125 bpm, 11B / A major, 2019-02-25, Minimal,  1  19
78 124 bpm, 3A / Bb minor, 2019-02-25, Minimal,  0  19
79 125 bpm, 7B / F major, 2019-02-25, Techno,  0  19
80 127 bpm, 8A / A minor, 2019-02-25, Minimal,  0  19
81 123 bpm, 8A / A minor, 2019-02-25, Minimal,  0  19
82 124 bpm, 8A / A minor, 2019-02-25, Minimal,  0  19
83 122 bpm, 5A / C minor, 2019-02-25, Minimal,  0  19
84 125 bpm, 10B / D major, 2019-02-25, Minimal,  0  19
85 120 bpm, 8A / A minor, 2019-02-25, Minimal,  0  19
86 126 bpm, 7A / D minor, 2019-02-25, Minimal,  0  19
87 125 bpm, 8B / C major, 2019-02-25, Minimal,  0  19
88 123 bpm, 8B / C major, 2019-02-25, Minimal,  0  19
89 122 bpm, 8A / A minor, 2019-02-25, Minimal,  0  19
90 125 bpm, 8A / A minor, 2019-02-25, Minimal,  0  19
91 123 bpm, 2A / Eb minor, 2019-02-25, Techno,  0  19
92 117 bpm, 8A / A minor, 2019-02-25, Electronica,  0  19
93 125 bpm, 6A / G minor, 2019-02-18, Electro House,  0  23
94 124 bpm, 2A / Eb minor, 2019-02-18, Melodic House & Techno,  0  23
95 122 bpm, 11B / A major, 2019-02-18, Electro House,  0  23
96 120 bpm, 7B / F major, 2019-02-18, Electro House,  0  23
97 122 bpm, 8A / A minor, 2019-02-18, Melodic House & Techno,  0  23
98 128 bpm, 7A / D minor, 2019-02-18, Breaks,  0  23
99 125 bpm, 5A / C minor, 2019-02-18, Melodic House & Techno,  0  23
100 122 bpm, 7A / D minor, 2019-02-18, Progressive House,  1  23
×

Sign in

Sign in to access your personalized pages, follow artists and labels you love, and create playlists fromyour favorite tracks.

Please wait...